Regional Weather Roundup
Issued by NWS

Home | Current Version | Previous Version | Graphics & Text | Print | Product List | Glossary On
Versions: 1 2 3 4 5 6 7 8 9 10 11 12 13 14 15 16 17 18 19 20 21 22 23 24 25 26 27 28 29 30 31 32 33 34 35 36 37 38 39 40 41 42 43 44 45 46 47 48 49 50
000
ASUS43 KMKX 301811
RWRWI

WISCONSIN REGIONAL WEATHER ROUNDUP
NATIONAL WEATHER SERVICE MILWAUKEE/SULLIVAN WI
100 PM CDT MON MAY 30 2016

NOTE: "FAIR" INDICATES FEW OR NO CLOUDS BELOW 12,000 FEET WITH NO
SIGNIFICANT WEATHER AND/OR OBSTRUCTIONS TO VISIBILITY.

WIZ001-002-006>008-014>016-023>028-301900-
NORTHWEST WISCONSIN

CITY           SKY/WX    TMP DP  RH WIND       PRES   REMARKS
SUPERIOR ARPT  SUNNY     80  46  30 CALM      29.95S
6HR MIN TEMP:  54; 6HR MAX TEMP:  80;

ASHLAND        MOSUNNY   79  46  31 W8        29.97S
6HR MIN TEMP:  58; 6HR MAX TEMP:  79;

HAYWARD        SUNNY     78  49  35 SW8       29.99F
6HR MIN TEMP:  51; 6HR MAX TEMP:  78;

SIREN          MOSUNNY   79  46  30 NW6       29.98S
6HR MIN TEMP:  53; 6HR MAX TEMP:  79;

CUMBERLAND     MOSUNNY   73  52  46 SW8       30.01S
RICE LAKE      MOSUNNY   76  50  39 S8        30.02S
6HR MIN TEMP:  56; 6HR MAX TEMP:  76;

CHETEK         MOSUNNY   75  55  49 CALM      30.01F
6HR MIN TEMP:  54; 6HR MAX TEMP:  76;

LADYSMITH      CLOUDY    77  47  35 W5        30.02F
6HR MIN TEMP:  55; 6HR MAX TEMP:  77;

EAU CLAIRE     MOSUNNY   78  50  37 S7        30.00F
6HR MIN TEMP:  59; 6HR MAX TEMP:  79;

MENOMONIE      MOSUNNY   80  53  40 S8        30.01F HX  80
6HR MIN TEMP:  58; 6HR MAX TEMP:  81;

NEW RICHMOND   SUNNY     79  49  35 SW5       30.00F
6HR MIN TEMP:  57; 6HR MAX TEMP:  79;

OSCEOLA        SUNNY     79  55  44 S7        30.01F
6HR MIN TEMP:  55; 6HR MAX TEMP:  79;

$$

WIZ003>005-009-010-017-018-301900-
NORTH CENTRAL WISCONSIN

CITY           SKY/WX    TMP DP  RH WIND       PRES   REMARKS
MANITOWISH WTR NOT AVBL
ARBOR VITAE    MOSUNNY   75  49  39 W9        30.01S
6HR MIN TEMP:  57; 6HR MAX TEMP:  75;

WOODRUFF       MOSUNNY   75  49  39 W9        30.01S
6HR MIN TEMP:  57; 6HR MAX TEMP:  75;

RHINELANDER    PTSUNNY   75  46  35 W15       30.02S HAZE
6HR MIN TEMP:  58; 6HR MAX TEMP:  76;

EAGLE RIVER      N/A     72  41  32 W13G18    30.01S
LAND O LAKES   MOSUNNY   73  44  34 W8        30.01S
6HR MIN TEMP:  56; 6HR MAX TEMP:  73;

PHILLIPS       PTSUNNY   72  49  44 W6        30.01S
6HR MIN TEMP:  54; 6HR MAX TEMP:  74;

TOMAHAWK       MOSUNNY   74  47  38 W10       30.03S
6HR MIN TEMP:  53; 6HR MAX TEMP:  74;

MEDFORD        CLOUDY    73  52  48 SW8       30.03S
6HR MIN TEMP:  57; 6HR MAX TEMP:  73;

MERRILL        MOSUNNY   75  50  40 W9        30.02F
$$

WIZ029-030-035-036-043>047-301900-
CENTRAL WISCONSIN

CITY           SKY/WX    TMP DP  RH WIND       PRES   REMARKS
WAUSAU         SUNNY     78  49  35 W13       30.01S
6HR MIN TEMP:  61; 6HR MAX TEMP:  78;

MOSINEE        SUNNY     75  48  38 SW10      30.04S
MARSHFIELD     SUNNY     77  47  34 W9        30.03S
6HR MIN TEMP:  60; 6HR MAX TEMP:  77;

STEVENS POINT  SUNNY     75  46  35 W7G17     30.03F
6HR MIN TEMP:  57; 6HR MAX TEMP:  75;

WAUPACA        SUNNY     80  45  28 NW7       30.02S
6HR MIN TEMP:  62; 6HR MAX TEMP:  80;

WAUTOMA        MOSUNNY  N/A N/A N/A W6        30.02F
WISC RAPIDS    SUNNY     79  43  27 W6        30.04S
6HR MIN TEMP:  61; 6HR MAX TEMP:  80;

CAMP DOUGLAS   SUNNY     78  55  44 W8        30.03F
6HR MIN TEMP:  61; 6HR MAX TEMP:  79;

$$

WIZ011>013-019>022-031-037>040-048>050-301900-
NORTHEAST WISCONSIN

CITY           SKY/WX    TMP DP  RH WIND       PRES   REMARKS
ANTIGO         MOSUNNY   73  51  45 NW12G18   30.02F
6HR MIN TEMP:  56; 6HR MAX TEMP:  73;

SHAWANO        MOSUNNY   80  46  30 NW12G17   30.01S
6HR MIN TEMP:  61; 6HR MAX TEMP:  80;

OCONTO         PTSUNNY   78  50  37 W9        29.99S
6HR MIN TEMP:  60; 6HR MAX TEMP:  78;

STURGEON BAY   NOT AVBL
GREEN BAY      MOSUNNY   78  53  41 W12G18    30.00S
6HR MIN TEMP:  62; 6HR MAX TEMP:  78;

MANITOWOC      SUNNY     78  48  34 W13G18    30.01S
6HR MIN TEMP:  65; 6HR MAX TEMP:  78;

APPLETON       PTSUNNY   75  43  31 W5        30.01S
CLINTONVILLE   MOSUNNY   77  45  31 NW10      30.01S
OSHKOSH        MOSUNNY   77  51  40 W7        30.01F
6HR MIN TEMP:  64; 6HR MAX TEMP:  78;

$$

WIZ032>034-041-042-053>061-301900-
SOUTHWEST WISCONSIN

CITY           SKY/WX    TMP DP  RH WIND       PRES   REMARKS
LA CROSSE      SUNNY     81  49  32 E6        30.00F HX  80
6HR MIN TEMP:  60; 6HR MAX TEMP:  81;

SPARTA         SUNNY     79  48  33 SW6       30.03F
6HR MIN TEMP:  54; 6HR MAX TEMP:  79;

VIROQUA        SUNNY     78  42  27 E3        30.04F
6HR MIN TEMP:  63; 6HR MAX TEMP:  79;

BOSCOBEL       MOSUNNY   80  48  32 CALM      30.02F
6HR MIN TEMP:  59; 6HR MAX TEMP:  82;

PRAIRIE DU CHI CLOUDY    79  44  29 E7        30.00F
6HR MIN TEMP:  59; 6HR MAX TEMP:  79;

PLATTEVILLE    CLOUDY    77  45  31 N6        30.03F
$$

WIZ056-057-062-063-064-067-068-301900-
SOUTH CENTRAL WISCONSIN

CITY           SKY/WX    TMP DP  RH WIND       PRES   REMARKS
REEDSBURG      SUNNY     77  50  38 W8        30.03F
6HR MIN TEMP:  58; 6HR MAX TEMP:  78;

BARABOO/DELLS  SUNNY     80  37  21 N6        30.03F
6HR MIN TEMP:  62; 6HR MAX TEMP:  80;

LONE ROCK      SUNNY     80  47  31 W6        30.03F
6HR MIN TEMP:  57; 6HR MAX TEMP:  81;

MINERAL POINT  CLOUDY    79  41  25 CALM      30.04F
MADISON        MOSUNNY   79  55  43 N6        30.02F
6HR MIN TEMP:  61; 6HR MAX TEMP:  79;

MIDDLETON      SUNNY     79  56  45 N8        30.03F HX  80
6HR MIN TEMP:  64; 6HR MAX TEMP:  79;

WATERTOWN      SUNNY     78  56  46 NW8       30.03S
6HR MIN TEMP:  61; 6HR MAX TEMP:  78;

MONROE         SUNNY     79  46  31 W9G17     30.04F
JANESVILLE     SUNNY     82  54  36 NW7       30.02F HX  81
$$

WIZ051-052-058>065-066-070>072-301900-
SOUTHEAST WISCONSIN

CITY           SKY/WX    TMP DP  RH WIND       PRES   REMARKS
MILWAUKEE      PTSUNNY   74  60  61 E10       30.01F
6HR MIN TEMP:  67; 6HR MAX TEMP:  81;

WAUKESHA       NOT AVBL
MILWAUKEE/TIMM NOT AVBL
RACINE         PTSUNNY   75  58  55 E12       30.03F
6HR MIN TEMP:  66; 6HR MAX TEMP:  79;

BURLINGTON     MOSUNNY   80  53  39 W12       30.02F HX  80
6HR MIN TEMP:  61; 6HR MAX TEMP:  80;

KENOSHA        MOSUNNY   82  58  43 NW8       30.01F HX  82
6HR MIN TEMP:  65; 6HR MAX TEMP:  83;

FOND DU LAC    SUNNY     77  55  46 NW7       30.02F
6HR MIN TEMP:  63; 6HR MAX TEMP:  78;

SHEBOYGAN      SUNNY     77  53  43 W12       30.01F
6HR MIN TEMP:  63; 6HR MAX TEMP:  78;

WEST BEND      CLOUDY    77  54  44 W6        30.02F
JUNEAU         SUNNY     75  53  46 W8        30.04S
6HR MIN TEMP:  60; 6HR MAX TEMP:  75;

$$

LSZ147-162-301900-
LAKE SUPERIOR

STATION/POSITION TIME  TEMP    WIND        PRES    WAVE
                       AIR SEA DIR/SP/G            HT/PER
                 (UTC) (F)     (DEG/KT/KT) (MB)    (FT/S)
W MID LAKE BUOY  1750   45 38  220/  8/  8 1014.4S   1/ 3
DEVILS ISLAND    1800   66     230/ 12/ 14 1014.1F
SAXON HARBOR     1740   67     330/  1/  4 1014.6S
$$

LMZ867-665-643>646-301900-
LAKE MICHIGAN

STATION/POSITION TIME  TEMP    WIND        PRES    WAVE
                       AIR SEA DIR/SP/G            HT/PER
                 (UTC) (F)     (DEG/KT/KT) (MB)    (FT/S)
CHAMBERS ISLAND  1700   74     260/  6/  9 1014.9F
N MID LAKE BUOY  1750   53 49  200/  6/  6 1014.9F   1
NORTHPORT PIER   1700   70     310/  7/ 11 1014.9S
KEWAUNEE LAKESHO 1700   75     310/  7/ 11 1015.3S
SHEBOYGAN LAKESH 1800   63     180/  8/ 10 1016.6F
PORT WASHINGTON  1700   68     130/  2/  3 1017.3S
S MID LAKC1F1C2F2C3F3C4F4C5F5C6F6C7F7C8M1C9M2Ca!


USA.gov is the U.S. government's official web portal to all federal, state and local government web resources and services.